Location: Newark
(45.2500°N, 7.5833°E)
Time: 10:45:01
(UTC+00:00)

Vanguard 3 - Pass Details

Date: 26 January 2020
Orbit: 508 x 3263 km, 33.3° (Epoch: 25 February)

Event Time Altitude Azimuth Distance (km) Brightness Sun altitude
Rises 16:47:20 0° 235° (SW) 6,890 14.0 -4.0°
Reaches altitude 10° 16:51:56 10° 230° (SW) 6,049 13.1 -4.8°
Maximum altitude 17:10:22 49° 164° (SSE) 3,744 10.5 -7.8°
Drops below altitude 10° 17:25:55 10° 97° (E) 5,192 10.7 -10.4°
Enters shadow 17:26:41 - 95° (E) 5,335 10.7 -10.5°
Sets 17:29:30 0° 92° (E) 5,894 - -11.0°
